GW5351 Weather Reports


Display with metric or nautical units.
time (UTC)temp
F
wind
direction
speed
MPH
gust
MPH
rain 1hr
in
rain 24hr
in
rain mn
in
humidity
%
barometer
mb
20260901072119 78 177 0.0 0.0 0.00 0.00 0.00 92 1016.6
20260901071619 78 177 0.0 1.0 0.00 0.00 0.00 92 1016.6
20260901071118 78 177 0.0 0.0 0.00 0.00 0.00 91 1016.5
20260901070613 79 177 0.0 0.0 0.00 0.00 0.00 92 1016.6
20260901070108 79 177 0.0 0.0 0.00 0.00 0.00 92 1016.6
20260901065602 79 177 0.0 0.0 0.00 0.00 0.00 92 1016.5
20260901065056 79 177 0.0 0.0 0.00 0.00 0.00 91 1016.5
20260901064554 79 177 0.0 0.0 0.00 0.00 0.00 91 1016.3
20260901064050 79 177 0.0 0.0 0.00 0.00 0.00 91 1016.7
20260901063546 80 177 0.0 0.0 0.00 0.00 0.00 90 1016.7
20260901063042 80 177 0.0 0.0 0.00 0.00 0.00 90 1016.6
20260901062538 79 177 0.0 0.0 0.00 0.00 0.00 89 1016.6
20260901062033 80 177 0.0 0.0 0.00 0.00 0.00 89 1016.8
20260901061530 80 177 0.0 0.0 0.00 0.00 0.00 89 1016.8
20260901061025 80 177 0.0 0.0 0.00 0.00 0.00 88 1016.7
20260901060524 80 177 0.0 0.0 0.00 0.00 0.00 88 1016.8
20260901060019 80 177 0.0 0.0 0.00 0.00 0.00 88 1017.0
20260901055515 80 177 0.0 0.0 0.00 0.00 0.00 87 1016.9
20260901055012 80 177 0.0 0.0 0.00 0.00 0.00 87 1016.7
20260901054509 81 177 0.0 0.0 0.00 0.00 0.00 86 1016.7
20260901054004 81 177 0.0 0.0 0.00 0.00 0.00 86 1016.9
20260901053459 81 177 0.0 0.0 0.00 0.00 0.00 85 1016.7
20260901052955 81 177 0.0 0.0 0.00 0.00 0.00 85 1016.8
20260901052451 82 177 0.0 0.0 0.00 0.00 0.00 84 1016.8
20260901051949 82 177 0.0 0.0 0.00 0.00 0.00 83 1016.5
20260901051445 82 177 0.0 0.0 0.00 0.00 0.00 83 1016.6
20260901050944 82 177 0.0 0.0 0.00 0.00 0.00 83 1016.6
20260901050440 82 177 0.0 0.0 0.00 0.00 0.00 83 1016.6
20260901045940 82 177 0.0 1.0 0.00 0.00 0.00 83 1016.5
20260901045435 82 208 0.0 0.0 0.00 0.00 0.00 83 1016.5
20260901044930 82 209 0.0 0.0 0.00 0.00 0.00 82 1016.6
20260901044426 82 209 0.0 0.0 0.00 0.00 0.00 83 1016.4
20260901043922 82 209 0.0 0.0 0.00 0.00 0.00 83 1016.3
20260901043418 82 209 0.0 0.0 0.00 0.00 0.00 82 1016.4
20260901042912 83 209 0.0 0.0 0.00 0.00 0.00 82 1016.1
20260901042407 83 209 0.0 0.0 0.00 0.00 0.00 81 1016.2
20260901041902 83 209 0.0 0.0 0.00 0.00 0.00 80 1016.4
20260901041357 83 209 0.0 0.0 0.00 0.00 0.00 80 1016.4
20260901040856 83 209 0.0 0.0 0.00 0.00 0.00 79 1016.4
20260901040356 83 209 0.0 0.0 0.00 0.00 0.00 79 1016.2
20260901035855 84 209 0.0 0.0 0.00 0.00 0.00 79 1016.3
20260901035354 84 209 0.0 0.0 0.00 0.00 0.00 79 1016.2
20260901034853 84 210 0.0 0.0 0.00 0.00 0.00 78 1016.0
20260901034348 83 212 0.0 0.0 0.00 0.00 0.00 79 1015.9
20260901033843 83 217 0.0 0.0 0.00 0.00 0.00 79 1015.8
20260901033342 83 217 0.0 0.0 0.00 0.00 0.00 79 1015.7
20260901032841 83 211 0.0 0.0 0.00 0.00 0.00 79 1015.7
20260901032340 83 211 0.0 0.0 0.00 0.00 0.00 79 1015.9
20260901031836 83 211 0.0 0.0 0.00 0.00 0.00 79 1015.7
20260901031331 83 211 0.0 0.0 0.00 0.00 0.00 80 1015.6
20260901030831 82 212 0.0 0.0 0.00 0.00 0.00 81 1015.6
20260901030326 82 212 0.0 0.0 0.00 0.00 0.00 82 1015.2
20260901025825 82 212 0.0 0.0 0.00 0.00 0.00 82 1015.5
20260901025320 82 212 0.0 0.0 0.00 0.00 0.00 82 1015.6
20260901024815 82 212 0.0 0.0 0.00 0.00 0.00 82 1015.4
20260901024314 82 212 0.0 0.0 0.00 0.00 0.00 82 1015.4
20260901023813 83 212 0.0 0.0 0.00 0.00 0.00 82 1015.4
20260901023308 83 212 0.0 0.0 0.00 0.00 0.00 83 1015.2
20260901022803 83 212 0.0 0.0 0.00 0.00 0.00 82 1015.4
20260901022259 84 212 0.0 0.0 0.00 0.00 0.00 81 1015.0
20260901021754 84 212 0.0 0.0 0.00 0.00 0.00 80 1015.0
20260901021250 85 212 0.0 0.0 0.00 0.00 0.00 79 1014.9
20260901020744 85 212 0.0 0.0 0.00 0.00 0.00 75 1014.9
20260901020240 86 212 0.0 0.0 0.00 0.00 0.00 74 1015.1
20260901015735 86 212 0.0 0.0 0.00 0.00 0.00 73 1015.1
20260901015231 86 212 0.0 0.0 0.00 0.00 0.00 71 1014.8
20260901014730 87 212 0.0 0.0 0.00 0.00 0.00 70 1014.8
20260901014226 87 213 0.0 0.0 0.00 0.00 0.00 70 1014.8
20260901013721 87 199 0.0 0.0 0.00 0.00 0.00 70 1014.9
20260901013217 87 199 0.0 1.0 0.00 0.00 0.00 70 1014.8
20260901012713 87 219 0.0 0.0 0.00 0.00 0.00 70 1014.8
20260901012212 87 219 0.0 0.0 0.00 0.00 0.00 69 1014.9
20260901011708 87 207 0.0 1.0 0.00 0.00 0.00 69 1014.7
20260901011208 87 197 0.0 1.0 0.00 0.00 0.00 70 1014.7
20260901010702 86 243 0.0 0.0 0.00 0.00 0.00 74 1014.6
20260901010157 87 243 0.0 0.0 0.00 0.00 0.00 74 1014.7
20260901005655 87 243 0.0 0.0 0.00 0.00 0.00 73 1014.5
20260901005151 87 243 0.0 0.0 0.00 0.00 0.00 72 1014.7
20260901004650 87 243 0.0 0.0 0.00 0.00 0.00 72 1014.6
20260901004145 88 243 0.0 0.0 0.00 0.00 0.00 71 1014.7
20260901003640 88 243 0.0 0.0 0.00 0.00 0.00 69 1014.7
20260901003140 88 243 0.0 0.0 0.00 0.00 0.00 69 1014.8
20260901002639 88 243 0.0 0.0 0.00 0.00 0.00 69 1014.7
20260901002134 88 243 0.0 0.0 0.00 0.00 0.00 69 1014.7
20260901001629 88 243 0.0 1.0 0.00 0.00 0.00 69 1014.8
20260901001124 89 244 1.0 4.0 0.00 0.00 0.00 67 1014.8
20260901000620 89 229 1.0 1.0 0.00 0.00 0.00 64 1015.1
20260901000115 89 220 0.0 1.0 0.00 0.00 0.00 65 1014.9
20260831235608 89 231 0.0 1.0 0.00 0.00 0.00 64 1015.0
20260831235104 90 214 2.0 3.0 0.00 0.00 0.00 64 1015.2
20260831234603 91 277 2.0 6.0 0.00 0.00 0.00 63 1015.2
20260831234059 92 218 0.0 1.0 0.00 0.00 0.00 58 1015.1
20260831233554 92 225 1.0 2.0 0.00 0.00 0.00 58 1015.0
20260831233050 92 190 2.0 4.0 0.00 0.00 0.00 58 1015.0
20260831232545 92 203 1.0 2.0 0.00 0.00 0.00 58 1015.0
20260831232041 92 199 2.0 3.0 0.00 0.00 0.00 58 1015.0
20260831231537 92 244 2.0 3.0 0.00 0.00 0.00 58 1015.0
20260831231033 93 214 2.0 3.0 0.00 0.00 0.00 57 1015.0
20260831230529 93 158 2.0 3.0 0.00 0.00 0.00 57 1014.7
20260831230028 94 210 2.0 4.0 0.00 0.00 0.00 57 1014.9
20260831225524 94 219 2.0 3.0 0.00 0.00 0.00 57 1014.6
20260831225023 93 201 4.0 4.0 0.00 0.00 0.00 57 1014.8
20260831224518 93 226 3.0 4.0 0.00 0.00 0.00 57 1014.8
20260831224014 93 224 2.0 4.0 0.00 0.00 0.00 58 1014.8
20260831223509 93 212 3.0 6.0 0.00 0.00 0.00 57 1014.8
20260831223005 93 208 2.0 6.0 0.00 0.00 0.00 57 1014.9
20260831222501 93 239 3.0 9.0 0.00 0.00 0.00 57 1014.8
20260831222000 93 251 3.0 4.0 0.00 0.00 0.00 58 1014.9
20260831221456 93 232 2.0 8.0 0.00 0.00 0.00 59 1014.8
20260831220951 94 151 3.0 6.0 0.00 0.00 0.00 59 1014.8
20260831220447 94 221 3.0 6.0 0.00 0.00 0.00 58 1014.7
20260831215942 94 198 3.0 10.0 0.00 0.00 0.00 58 1014.6
20260831215437 94 211 2.0 4.0 0.00 0.00 0.00 58 1014.7
20260831214933 94 243 2.0 6.0 0.00 0.00 0.00 58 1014.8
20260831214431 94 209 0.0 6.0 0.00 0.00 0.00 58 1014.8
20260831213926 94 75 3.0 8.0 0.00 0.00 0.00 56 1015.0
20260831213423 95 331 8.0 9.0 0.00 0.00 0.00 55 1015.1
20260831212923 96 212 1.0 3.0 0.00 0.00 0.00 50 1014.9
20260831212419 97 181 4.0 6.0 0.00 0.00 0.00 47 1014.9
20260831211918 97 138 2.0 3.0 0.00 0.00 0.00 48 1014.9
20260831211414 98 200 2.0 7.0 0.00 0.00 0.00 48 1014.8
20260831210913 98 204 0.0 3.0 0.00 0.00 0.00 47 1014.8
20260831210409 99 179 4.0 6.0 0.00 0.00 0.00 45 1014.9
20260831205904 99 153 1.0 3.0 0.00 0.00 0.00 44 1014.9
20260831205400 99 191 2.0 4.0 0.00 0.00 0.00 44 1014.9
20260831204855 99 213 1.0 3.0 0.00 0.00 0.00 46 1015.0
20260831204354 99 183 2.0 3.0 0.00 0.00 0.00 45 1015.2
20260831203854 97 232 2.0 4.0 0.00 0.00 0.00 48 1015.2
20260831203349 98 226 2.0 3.0 0.00 0.00 0.00 47 1015.3
20260831202847 98 235 0.0 3.0 0.00 0.00 0.00 47 1015.5
20260831202342 98 158 1.0 3.0 0.00 0.00 0.00 48 1015.7
20260831201841 97 215 2.0 3.0 0.00 0.00 0.00 50 1015.6
20260831201340 97 277 2.0 6.0 0.00 0.00 0.00 49 1015.5
20260831200836 98 211 0.0 1.0 0.00 0.00 0.00 48 1015.6
20260831200331 98 214 1.0 2.0 0.00 0.00 0.00 49 1015.7
20260831195826 99 338 2.0 3.0 0.00 0.00 0.00 46 1015.7
20260831195322 99 248 1.0 4.0 0.00 0.00 0.00 46 1015.9
20260831194818 99 247 0.0 1.0 0.00 0.00 0.00 46 1015.9
20260831194313 98 223 0.0 3.0 0.00 0.00 0.00 49 1016.1
20260831193812 97 215 0.0 1.0 0.00 0.00 0.00 46 1016.1
20260831193307 97 213 1.0 4.0 0.00 0.00 0.00 49 1016.3
20260831192802 96 275 2.0 3.0 0.00 0.00 0.00 48 1016.3
20260831192257 95 227 0.0 2.0 0.00 0.00 0.00 49 1016.5
20260831191753 95 222 1.0 4.0 0.00 0.00 0.00 51 1016.4
20260831191249 95 174 2.0 2.0 0.00 0.00 0.00 54 1016.3
20260831190744 95 237 0.0 2.0 0.00 0.00 0.00 53 1016.5
20260831190244 96 220 1.0 2.0 0.00 0.00 0.00 53 1016.5
20260831185738 94 221 0.0 0.0 0.00 0.00 0.00 55 1016.8
20260831185234 93 268 0.0 1.0 0.00 0.00 0.00 57 1016.8
20260831184733 94 351 4.0 7.0 0.00 0.00 0.00 56 1016.8
20260831184229 94 262 2.0 3.0 0.00 0.00 0.00 55 1016.8
20260831183729 95 244 3.0 6.0 0.00 0.00 0.00 55 1017.0
20260831183224 96 337 2.0 4.0 0.00 0.00 0.00 53 1017.1
20260831182723 96 214 1.0 3.0 0.00 0.00 0.00 51 1017.1
20260831182219 96 206 1.0 1.0 0.00 0.00 0.00 51 1017.4
20260831181718 95 186 3.0 3.0 0.00 0.00 0.00 50 1017.3
20260831181214 95 212 1.0 2.0 0.00 0.00 0.00 54 1017.4
20260831180709 96 231 1.0 3.0 0.00 0.00 0.00 53 1017.4
20260831180204 96 348 2.0 3.0 0.00 0.00 0.00 53 1017.5
20260831175703 96 198 1.0 4.0 0.00 0.00 0.00 52 1017.5
20260831175200 96 178 1.0 4.0 0.00 0.00 0.00 55 1017.6
20260831174659 96 221 1.0 2.0 0.00 0.00 0.00 55 1017.5
20260831174154 95 268 1.0 4.0 0.00 0.00 0.00 55 1017.6
20260831173653 94 85 2.0 6.0 0.00 0.00 0.00 58 1017.7
20260831173149 94 226 1.0 2.0 0.00 0.00 0.00 56 1017.8
20260831172648 93 209 0.0 1.0 0.00 0.00 0.00 59 1018.0
20260831172144 94 217 1.0 2.0 0.00 0.00 0.00 58 1017.9
20260831171638 93 240 1.0 2.0 0.00 0.00 0.00 59 1017.9
20260831171136 94 93 1.0 6.0 0.00 0.00 0.00 57 1017.9
20260831170632 93 237 0.0 2.0 0.00 0.00 0.00 59 1018.0
20260831170129 90 219 2.0 2.0 0.00 0.00 0.00 63 1017.9
20260831165624 91 254 1.0 3.0 0.00 0.00 0.00 62 1018.0
20260831165121 91 212 0.0 1.0 0.00 0.00 0.00 63 1018.3
20260831164617 91 274 1.0 3.0 0.00 0.00 0.00 62 1018.2
20260831164112 92 217 0.0 1.0 0.00 0.00 0.00 62 1018.0
20260831163607 94 177 0.0 1.0 0.00 0.00 0.00 59 1018.0
20260831163102 94 203 1.0 2.0 0.00 0.00 0.00 59 1018.2
20260831162601 94 220 1.0 2.0 0.00 0.00 0.00 59 1018.2
20260831162059 92 220 0.0 3.0 0.00 0.00 0.00 63 1018.3
20260831161555 92 188 1.0 3.0 0.00 0.00 0.00 60 1018.4
20260831161052 93 239 2.0 2.0 0.00 0.00 0.00 63 1018.3
20260831160551 92 225 0.0 1.0 0.00 0.00 0.00 62 1018.1
20260831160047 92 286 1.0 2.0 0.00 0.00 0.00 62 1018.3
20260831155541 92 231 2.0 2.0 0.00 0.00 0.00 62 1018.3
20260831155036 91 225 0.0 2.0 0.00 0.00 0.00 65 1018.2
20260831154532 91 56 0.0 2.0 0.00 0.00 0.00 64 1018.3
20260831154032 91 219 1.0 2.0 0.00 0.00 0.00 65 1018.1
20260831153532 91 240 1.0 2.0 0.00 0.00 0.00 64 1018.2
20260831153029 90 216 1.0 1.0 0.00 0.00 0.00 66 1018.2
20260831152524 90 224 2.0 3.0 0.00 0.00 0.00 65 1018.2
20260831152020 90 213 0.0 2.0 0.00 0.00 0.00 65 1018.2
20260831151519 89 196 0.0 2.0 0.00 0.00 0.00 67 1018.1
20260831151019 88 177 0.0 2.0 0.00 0.00 0.00 68 1018.1
20260831150514 88 208 1.0 2.0 0.00 0.00 0.00 72 1018.1
20260831150010 87 348 3.0 4.0 0.00 0.00 0.00 75 1018.0
20260831145504 88 213 1.0 3.0 0.00 0.00 0.00 75 1018.0
20260831145000 87 209 0.0 1.0 0.00 0.00 0.00 78 1017.9
20260831144456 86 184 1.0 2.0 0.00 0.00 0.00 80 1018.0
20260831143951 86 163 1.0 2.0 0.00 0.00 0.00 81 1018.1
20260831143446 86 230 1.0 2.0 0.00 0.00 0.00 82 1017.9
20260831142941 86 226 3.0 3.0 0.00 0.00 0.00 83 1018.0
20260831142438 86 188 1.0 2.0 0.00 0.00 0.00 83 1017.9
20260831141937 85 216 0.0 1.0 0.00 0.00 0.00 85 1018.0
20260831141431 85 187 0.0 2.0 0.00 0.00 0.00 84 1017.8
20260831140927 84 196 0.0 0.0 0.00 0.00 0.00 85 1017.9
20260831140426 84 202 0.0 1.0 0.00 0.00 0.00 86 1017.8
20260831135925 83 197 0.0 0.0 0.00 0.00 0.00 87 1017.8
20260831135425 82 200 0.0 0.0 0.00 0.00 0.00 90 1017.8
20260831134920 81 203 0.0 1.0 0.00 0.00 0.00 94 1017.8
20260831134417 79 210 0.0 0.0 0.00 0.00 0.00 98 1017.6
20260831133916 78 222 0.0 0.0 0.00 0.00 0.00 99 1017.6
20260831133411 78 209 0.0 0.0 0.00 0.00 0.00 99 1017.7
20260831132906 77 222 0.0 0.0 0.00 0.00 0.00 99 1017.6
20260831132401 77 223 0.0 0.0 0.00 0.00 0.00 99 1017.6
20260831131901 76 215 0.0 0.0 0.00 0.00 0.00 99 1017.6
20260831131351 76 214 0.0 0.0 0.00 0.00 0.00 99 1017.4
20260831130846 76 214 0.0 0.0 0.00 0.00 0.00 99 1017.6
20260831130342 76 214 0.0 0.0 0.00 0.00 0.00 99 1017.4
20260831125841 75 214 0.0 0.0 0.00 0.00 0.00 99 1017.5
20260831125336 75 214 0.0 0.0 0.00 0.00 0.00 99 1017.4
20260831124836 75 214 0.0 0.0 0.00 0.00 0.00 99 1017.5
20260831124333 74 214 0.0 0.0 0.00 0.00 0.00 99 1017.3
20260831123833 74 214 0.0 0.0 0.00 0.00 0.00 99 1017.1
20260831123332 74 214 0.0 0.0 0.00 0.00 0.00 99 1017.3
20260831122827 74 215 0.0 0.0 0.00 0.00 0.00 99 1017.2
20260831122323 73 215 0.0 0.0 0.00 0.00 0.00 99 1016.8
20260831121822 74 215 0.0 0.0 0.00 0.00 0.00 99 1016.9
20260831121318 74 215 0.0 0.0 0.00 0.00 0.00 99 1016.7
20260831120813 74 215 0.0 0.0 0.00 0.00 0.00 99 1016.7
20260831120308 74 215 0.0 0.0 0.00 0.00 0.00 99 1016.7
20260831115803 74 215 0.0 0.0 0.00 0.00 0.00 99 1016.5
20260831115259 74 215 0.0 0.0 0.00 0.00 0.00 99 1016.7
20260831114758 73 215 0.0 0.0 0.00 0.00 0.00 99 1016.6
20260831114252 73 215 0.0 0.0 0.00 0.00 0.00 99 1016.6
20260831113749 73 215 0.0 0.0 0.00 0.00 0.00 99 1016.5
20260831113248 74 215 0.0 0.0 0.00 0.00 0.00 99 1016.4
20260831112748 73 215 0.0 0.0 0.00 0.00 0.00 99 1016.5
20260831112243 74 215 0.0 0.0 0.00 0.00 0.00 99 1016.5
20260831111738 74 215 0.0 0.0 0.00 0.00 0.00 99 1016.6
20260831111235 74 215 0.0 0.0 0.00 0.00 0.00 99 1016.4
20260831110730 74 215 0.0 0.0 0.00 0.00 0.00 99 1016.6
20260831110225 74 215 0.0 0.0 0.00 0.00 0.00 99 1016.4
20260831105723 74 215 0.0 0.0 0.00 0.00 0.00 99 1016.5
20260831105220 74 215 0.0 0.0 0.00 0.00 0.00 99 1016.5
20260831104714 74 215 0.0 0.0 0.00 0.00 0.00 99 1016.5
20260831104211 74 215 0.0 0.0 0.00 0.00 0.00 99 1016.5
20260831103710 75 215 0.0 0.0 0.00 0.00 0.00 99 1016.3
20260831103206 75 215 0.0 0.0 0.00 0.00 0.00 99 1016.3
20260831102701 75 215 0.0 0.0 0.00 0.00 0.00 99 1016.3
20260831102201 75 215 0.0 0.0 0.00 0.00 0.00 99 1016.6
20260831101656 75 215 0.0 0.0 0.00 0.00 0.00 99 1016.4
20260831101152 75 215 0.0 0.0 0.00 0.00 0.00 98 1016.5
20260831100648 75 215 0.0 0.0 0.00 0.00 0.00 98 1016.5
20260831100144 75 215 0.0 0.0 0.00 0.00 0.00 98 1016.5
20260831095641 74 215 0.0 0.0 0.00 0.00 0.00 98 1016.7
20260831095137 75 215 0.0 0.0 0.00 0.00 0.00 98 1016.5
20260831094632 74 215 0.0 0.0 0.00 0.00 0.00 98 1016.6
20260831094128 75 215 0.0 0.0 0.00 0.00 0.00 98 1016.4
20260831093623 75 215 0.0 0.0 0.00 0.00 0.00 98 1016.6
20260831093119 75 215 0.0 0.0 0.00 0.00 0.00 98 1016.4
20260831092615 75 215 0.0 0.0 0.00 0.00 0.00 98 1016.4
20260831092111 75 215 0.0 0.0 0.00 0.00 0.00 98 1016.5
20260831091610 75 215 0.0 0.0 0.00 0.00 0.00 97 1016.5
20260831091106 75 215 0.0 0.0 0.00 0.00 0.00 97 1016.3
20260831090601 75 215 0.0 0.0 0.00 0.00 0.00 97 1016.4
20260831090057 75 215 0.0 0.0 0.00 0.00 0.00 97 1016.4
20260831085552 75 215 0.0 0.0 0.00 0.00 0.00 97 1016.6
20260831085048 76 215 0.0 0.0 0.00 0.00 0.00 97 1016.3
20260831084543 75 215 0.0 0.0 0.00 0.00 0.00 97 1016.3
20260831084040 76 215 0.0 0.0 0.00 0.00 0.00 97 1016.4
20260831083535 76 214 0.0 0.0 0.00 0.00 0.00 97 1016.3
20260831083030 76 214 0.0 0.0 0.00 0.00 0.00 96 1016.3
20260831082529 76 214 0.0 0.0 0.00 0.00 0.00 96 1016.6
20260831082025 76 214 0.0 0.0 0.00 0.00 0.00 96 1016.4
20260831081520 77 214 0.0 0.0 0.00 0.00 0.00 96 1016.6
20260831081017 76 214 0.0 0.0 0.00 0.00 0.00 96 1016.7
20260831080516 76 214 0.0 0.0 0.00 0.00 0.00 95 1016.6
20260831080012 77 214 0.0 0.0 0.00 0.00 0.00 95 1016.4
20260831075507 77 214 0.0 0.0 0.00 0.00 0.00 95 1016.6
20260831075003 77 214 0.0 0.0 0.00 0.00 0.00 95 1016.8
20260831074502 77 214 0.0 0.0 0.00 0.00 0.00 95 1016.6
20260831073956 78 214 0.0 0.0 0.00 0.00 0.00 94 1016.6
20260831073456 77 214 0.0 0.0 0.00 0.00 0.00 94 1016.5
20260831072955 77 214 0.0 0.0 0.00 0.00 0.00 94 1016.4
20260831072451 77 214 0.0 0.0 0.00 0.00 0.00 94 1016.4